Aérodrome :
LOGIN :

S'inscrire | Disclaimer

   EN    FR    IT 

 










Légende :    VFR   VFR Marginal   IFR   IFR Intensif   IFR Très Intensif
Visi : 
Plafond : 
>= 8 km
>= 3000ft
5 à 8 km
1000 à 3000 ft
1500m à 5 km
500 à 1000 ft
800 à 1500m
200 à 500 ft
< 800m
< 200 ft
Symboles :   Orages  Brouillard  Fortes neiges  Fortes précipitations  Vent > 20 kt
SIGMETs :   Divers  Orages  Givrage  Turbulence  Onde Orograph.  Cendres Volcan.







- Altitude de l'aérodrome : 141 ft
- Code IATA : SKS


EKSP - Srydstrup Vojens

DERNIER METAR :
  • 162250Z 09002KT CAVOK 11/10 Q1020

METARs EXPIRÉS :
  • 162220Z 13001KT CAVOK 11/10 Q1020
  • 162150Z 16002KT CAVOK 11/11 Q1020
  • 162120Z 00000KT CAVOK 12/11 Q1021
  • 162050Z 00000KT CAVOK 12/11 Q1021

TAF TAF EKSP
Valide du 16 à 21h jusqu'au 17 à 18h UTC


162022Z 1621/1718 VRB03KT 9999 FEW040 SCT200
TEMPO 1622/1705 1200 MIFG BR
BECMG 1704/1707 15012KT
BECMG 1713/1716 18012KT 3000 RA BKN008
BECMG 1716/1718 21015KT
TEMPO 1716/1718 9999 -RA SCT008 BKN040
Pas de NOTAMs connus pour ce terrain.



MET'MAP, la Météo Aéronautique d'un coup d'oeil ! - Copyright ORBIFLY Décembre 2007 - Disclaimer

ORBIFLY MET'MAP TEAM :

Programmation & Développement : Alexandra Zaïnal
Conception & Développement : Baudouin d'Aumeries
Co-Programmation & Développement : Marc-Olivier Méhu
Soutien technique & logistique : Manuel Goepfert

Contact : metmap@orbifly.com




SOURCES & CREDITS :

   NOAA